Metcalfe, MS

9:25 AM CST on February 07, 2016 (GMT -0600)
Mid Delta Regional

Weather History for KGLH - August, 2012

Change the Weather History Date:

Saturday, August 4, 2012

  Actual Average Record
Temperature  
Mean Temperature 88 °F 82 °F  
Max Temperature 97 °F 92 °F 106 °F (2011)
Min Temperature 78 °F 72 °F 59 °F (1986)
Degree Days  
Heating Degree Days 0 0  
Month to date heating degree days 0 0  
Since 1 June heating degree days 0 0  
Since 1 July heating degree days 0 0  
Cooling Degree Days 23 17  
Month to date cooling degree days 92 68  
Year to date cooling degree days 1612 1337  
Since 1 June cooling degree days 1087 1015  
Growing Degree Days 39 (Base 50)    
Moisture  
Dew Point 72 °F    
Average Humidity 61    
Maximum Humidity 79    
Minimum Humidity 42    
Precipitation  
Precipitation 0.00 in 0.06 in 0.81 in (1980)
Month to date precipitation T 0.24  
Year to date precipitation 22.32 32.34  
Sea Level Pressure  
Sea Level Pressure 29.98 in    
Wind  
Wind Speed 9 mph (SSW)    
Max Wind Speed 17 mph    
Max Gust Speed 22 mph    
Visibility 10 miles    
Events      
T = Trace of Precipitation, MM = Missing Value Source: NWS Daily Summary

Daily Weather History Graph

Daily Weather History Graph

Search for Another Location

Airport or City:

Trip Planner

Search our weather history database for the weather conditions in past years. The results will help you decide how hot, cold, wet, or windy it might be!

Date:

Astronomy

Aug. 04, 2012 Rise Set
Actual Time 6:18 AM CDT 8:00 PM CDT
Civil Twilight 5:51 AM CDT 8:27 PM CDT
Nautical Twilight 5:19 AM CDT 8:59 PM CDT
Astronomical Twilight 4:45 AM CDT 9:33 PM CDT
Moon 9:23 PM CDT (8/4) 8:54 AM CDT (8/4)
Length of Visible Light 14h 35m
Length of Day
13h 41m
Waning Gibbous, 92% of the Moon is Illuminated
Aug 4
Waning Gibbous
Aug 9
Last Quarter
Aug 17
New
Aug 24
First Quarter
Aug 31
Full

Hourly Weather History & Observations

Time (CDT) Temp. Heat Index Dew Point Humidity Pressure Visibility Wind Dir Wind Speed Gust Speed Precip Events Conditions
12:53 AM 82.9 °F 90.2 °F 75.0 °F 77% 29.90 in 10.0 mi SSW 9.2 mph - N/A   Clear
1:53 AM 84.0 °F 91.9 °F 75.0 °F 74% 29.88 in 10.0 mi SSW 8.1 mph - N/A   Clear
2:53 AM 82.9 °F 90.2 °F 75.0 °F 77% 29.90 in 10.0 mi SSW 8.1 mph - N/A   Clear
3:53 AM 82.9 °F 90.2 °F 75.0 °F 77% 29.91 in 10.0 mi SW 9.2 mph - N/A   Clear
4:53 AM 82.9 °F 89.4 °F 73.9 °F 74% 29.94 in 10.0 mi SW 8.1 mph - N/A   Clear
5:53 AM 82.0 °F 87.9 °F 73.9 °F 76% 29.96 in 10.0 mi SSW 6.9 mph - N/A   Clear
6:53 AM 82.0 °F 88.6 °F 75.0 °F 79% 29.98 in 10.0 mi South 6.9 mph - N/A   Clear
7:53 AM 82.9 °F 90.2 °F 75.0 °F 77% 30.00 in 10.0 mi South 9.2 mph - N/A   Clear
8:53 AM 86.0 °F 93.8 °F 73.9 °F 67% 30.00 in 10.0 mi SSW 15.0 mph - N/A   Clear
9:53 AM 88.0 °F 94.7 °F 72.0 °F 59% 30.01 in 10.0 mi SW 12.7 mph - N/A   Clear
10:53 AM 91.0 °F 96.6 °F 70.0 °F 50% 30.02 in 10.0 mi SSW 15.0 mph - N/A   Clear
11:53 AM 93.0 °F 97.9 °F 69.1 °F 45% 30.01 in 10.0 mi SW 12.7 mph - N/A   Clear
12:53 PM 95.0 °F 99.5 °F 68.0 °F 41% 30.02 in 10.0 mi WSW 11.5 mph - N/A   Clear
1:53 PM 96.1 °F 101.6 °F 69.1 °F 41% 30.00 in 10.0 mi SW 9.2 mph - N/A   Clear
2:53 PM 96.1 °F 101.6 °F 69.1 °F 41% 29.99 in 10.0 mi SW 6.9 mph - N/A   Clear
3:53 PM 95.0 °F 101.3 °F 70.0 °F 44% 29.97 in 10.0 mi South 8.1 mph - N/A   Partly Cloudy
4:53 PM 96.1 °F 102.9 °F 70.0 °F 43% 29.97 in 10.0 mi SSW 8.1 mph 20.7 mph N/A   Clear
5:53 PM 95.0 °F 103.2 °F 72.0 °F 47% 29.97 in 10.0 mi South 6.9 mph - N/A   Partly Cloudy
6:53 PM 93.0 °F 100.1 °F 71.1 °F 49% 29.97 in 10.0 mi South 9.2 mph - N/A   Clear
7:53 PM 89.1 °F 96.0 °F 72.0 °F 57% 29.98 in 10.0 mi SSE 9.2 mph - N/A   Clear
8:53 PM 87.1 °F 95.4 °F 73.9 °F 65% 29.99 in 10.0 mi South 6.9 mph - N/A   Clear
9:53 PM 86.0 °F 91.5 °F 71.1 °F 61% 30.01 in 10.0 mi South 10.4 mph - N/A   Clear
10:53 PM 82.0 °F 86.7 °F 72.0 °F 71% 30.02 in 10.0 mi South 5.8 mph - N/A   Clear
11:53 PM 80.1 °F 83.6 °F 71.1 °F 74% 30.03 in 10.0 mi South 3.5 mph - N/A   Clear